Location: Westminster
(33.3626°N, 96.4619°W)
Time: 13:45:53
(UTC+00:00)

Cosmos 1763 Rocket - Pass Details

Date: 08 July 2022
Orbit: 732 x 780 km, 74.0° (Epoch: 07 August)

Event Time Altitude Azimuth Distance (km) Brightness Sun altitude
Exits shadow 07:01:33 34° 335° (NNW) 1,256 4.9 -33.7°
Drops below altitude 10° 07:04:55 10° 3° (N) 2,321 6.8 -33.6°
Sets 07:07:26 0° 10° (N) 3,257 7.8 -33.5°
